Time,TemperatureF,DewpointF,PressureIn,WindDirection,WindDirectionDegrees,WindSpeedMPH,WindSpeedGustMPH,Humidity,HourlyPrecipIn,Conditions,Clouds,dailyrainin,SolarRadiationWatts/m^2,SoftwareType,DateUTC
2013-05-25 00:12:00,53.0,17.0,-100.00,ESE,123,7.0,11.0,24,-99.99,,,0.00,0.000000,,2013-05-25 06:12:00,
2013-05-25 00:21:00,53.0,17.0,-100.00,ESE,123,7.0,11.0,24,-99.99,,,0.00,0.000000,,2013-05-25 06:21:00,
2013-05-25 00:32:00,53.0,17.0,-100.00,ESE,123,7.0,11.0,24,-99.99,,,0.00,0.000000,,2013-05-25 06:32:00,
2013-05-25 00:42:00,53.0,17.0,-100.00,ESE,123,7.0,11.0,24,-99.99,,,0.00,0.000000,,2013-05-25 06:42:00,
2013-05-25 01:11:00,49.0,19.0,-100.00,SSE,150,10.0,16.0,30,0.00,,,0.00,0.000000,,2013-05-25 07:11:00,
2013-05-25 01:21:00,49.0,19.0,-100.00,SSE,150,10.0,16.0,30,0.00,,,0.00,0.000000,,2013-05-25 07:21:00,
2013-05-25 01:31:00,49.0,19.0,-100.00,SSE,150,10.0,16.0,30,0.00,,,0.00,0.000000,,2013-05-25 07:31:00,
2013-05-25 01:41:00,49.0,19.0,-100.00,SSE,150,10.0,16.0,30,0.00,,,0.00,0.000000,,2013-05-25 07:41:00,
2013-05-25 02:11:00,48.0,18.0,-100.00,SE,133,11.0,19.0,30,0.00,,,0.00,0.000000,,2013-05-25 08:11:00,
2013-05-25 02:22:00,48.0,18.0,-100.00,SE,133,11.0,19.0,30,0.00,,,0.00,0.000000,,2013-05-25 08:22:00,
2013-05-25 02:32:00,48.0,18.0,-100.00,SE,133,11.0,19.0,30,0.00,,,0.00,0.000000,,2013-05-25 08:32:00,
2013-05-25 02:42:00,48.0,18.0,-100.00,SE,133,11.0,19.0,30,0.00,,,0.00,0.000000,,2013-05-25 08:42:00,
2013-05-25 03:11:00,48.0,17.0,-100.00,ESE,123,9.0,16.0,29,0.00,,,0.00,0.000000,,2013-05-25 09:11:00,
2013-05-25 03:21:00,48.0,17.0,-100.00,ESE,123,9.0,16.0,29,0.00,,,0.00,0.000000,,2013-05-25 09:21:00,
2013-05-25 03:33:00,48.0,17.0,-100.00,ESE,123,9.0,16.0,29,0.00,,,0.00,0.000000,,2013-05-25 09:33:00,
2013-05-25 03:42:00,48.0,17.0,-100.00,ESE,123,9.0,16.0,29,0.00,,,0.00,0.000000,,2013-05-25 09:42:00,
2013-05-25 04:12:00,48.0,17.0,-100.00,SE,130,9.0,13.0,29,0.00,,,0.00,0.000000,,2013-05-25 10:12:00,
2013-05-25 04:22:00,48.0,17.0,-100.00,SE,130,9.0,13.0,29,0.00,,,0.00,0.000000,,2013-05-25 10:22:00,
2013-05-25 04:32:00,48.0,17.0,-100.00,SE,130,9.0,13.0,29,0.00,,,0.00,0.000000,,2013-05-25 10:32:00,
2013-05-25 04:42:00,48.0,17.0,-100.00,SE,130,9.0,13.0,29,0.00,,,0.00,0.000000,,2013-05-25 10:42:00,
2013-05-25 05:12:00,48.0,16.0,-100.00,SE,126,9.0,13.0,28,0.00,,,0.00,0.000000,,2013-05-25 11:12:00,
2013-05-25 05:21:00,48.0,16.0,-100.00,SE,126,9.0,13.0,28,0.00,,,0.00,0.000000,,2013-05-25 11:21:00,
2013-05-25 05:32:00,48.0,16.0,-100.00,SE,126,9.0,13.0,28,0.00,,,0.00,0.000000,,2013-05-25 11:32:00,
2013-05-25 05:41:00,48.0,16.0,-100.00,SE,126,9.0,13.0,28,0.00,,,0.00,0.000000,,2013-05-25 11:41:00,
2013-05-25 06:12:00,50.0,14.0,-100.00,South,172,4.0,12.0,23,0.00,,,-99.99,1.000000,,2013-05-25 12:12:00,
2013-05-25 06:22:00,50.0,14.0,-100.00,South,172,4.0,12.0,23,0.00,,,-99.99,1.000000,,2013-05-25 12:22:00,
2013-05-25 06:42:00,50.0,14.0,-100.00,South,172,4.0,12.0,23,0.00,,,-99.99,1.000000,,2013-05-25 12:42:00,
2013-05-25 07:11:00,49.0,16.0,-100.00,SE,141,6.0,9.0,27,-99.99,,,0.00,80.000000,,2013-05-25 13:11:00,
2013-05-25 07:21:00,49.0,16.0,-100.00,SE,141,6.0,9.0,27,-99.99,,,0.00,80.000000,,2013-05-25 13:21:00,
2013-05-25 07:42:00,49.0,16.0,-100.00,SE,141,6.0,9.0,27,-99.99,,,0.00,80.000000,,2013-05-25 13:42:00,
2013-05-25 08:11:00,56.0,18.0,-100.00,ESE,103,4.0,9.0,22,-99.99,,,0.00,323.000000,,2013-05-25 14:11:00,
2013-05-25 08:22:00,56.0,18.0,-100.00,ESE,103,4.0,9.0,22,-99.99,,,0.00,323.000000,,2013-05-25 14:22:00,
2013-05-25 09:11:00,60.0,21.0,-100.00,NNW,340,4.0,7.0,22,-99.99,,,0.00,561.000000,,2013-05-25 15:11:00,
2013-05-25 09:22:00,60.0,21.0,-100.00,NNW,340,4.0,7.0,22,-99.99,,,0.00,561.000000,,2013-05-25 15:22:00,
2013-05-25 10:12:00,65.0,19.0,-100.00,South,170,3.0,10.0,17,0.00,,,0.00,795.000000,,2013-05-25 16:12:00,
2013-05-25 10:23:00,65.0,19.0,-100.00,South,170,3.0,10.0,17,0.00,,,0.00,795.000000,,2013-05-25 16:23:00,
2013-05-25 10:42:00,65.0,19.0,-100.00,South,170,3.0,10.0,17,0.00,,,0.00,795.000000,,2013-05-25 16:42:00,
2013-05-25 11:11:00,70.0,15.0,-100.00,WSW,242,7.0,16.0,12,0.00,,,0.00,1039.000000,,2013-05-25 17:11:00,
2013-05-25 11:22:00,70.0,15.0,-100.00,WSW,242,7.0,16.0,12,0.00,,,0.00,1039.000000,,2013-05-25 17:22:00,
2013-05-25 12:11:00,66.0,10.0,-100.00,WSW,258,12.0,28.0,11,-99.99,,,0.00,1048.000000,,2013-05-25 18:11:00,
2013-05-25 12:21:00,66.0,10.0,-100.00,WSW,258,12.0,28.0,11,-99.99,,,0.00,1048.000000,,2013-05-25 18:21:00,
2013-05-25 12:32:00,66.0,10.0,-100.00,WSW,258,12.0,28.0,11,-99.99,,,0.00,1048.000000,,2013-05-25 18:32:00,
2013-05-25 12:42:00,66.0,10.0,-100.00,WSW,258,12.0,28.0,11,-99.99,,,0.00,1048.000000,,2013-05-25 18:42:00,
2013-05-25 13:11:00,68.0,15.0,-100.00,WSW,254,9.0,26.0,13,0.00,,,0.00,826.000000,,2013-05-25 19:11:00,
2013-05-25 13:21:00,68.0,15.0,-100.00,WSW,254,9.0,26.0,13,0.00,,,0.00,826.000000,,2013-05-25 19:21:00,
2013-05-25 13:31:00,68.0,15.0,-100.00,WSW,254,9.0,26.0,13,0.00,,,0.00,826.000000,,2013-05-25 19:31:00,
2013-05-25 13:41:00,68.0,15.0,-100.00,WSW,254,9.0,26.0,13,0.00,,,0.00,826.000000,,2013-05-25 19:41:00,
2013-05-25 14:11:00,70.0,17.0,-100.00,WSW,247,9.0,20.0,13,0.00,,,0.00,1087.000000,,2013-05-25 20:11:00,
2013-05-25 14:21:00,70.0,17.0,-100.00,WSW,247,9.0,20.0,13,0.00,,,0.00,1087.000000,,2013-05-25 20:21:00,
2013-05-25 14:32:00,70.0,17.0,-100.00,WSW,247,9.0,20.0,13,0.00,,,0.00,1087.000000,,2013-05-25 20:32:00,
2013-05-25 14:42:00,70.0,17.0,-100.00,WSW,247,9.0,20.0,13,0.00,,,0.00,1087.000000,,2013-05-25 20:42:00,
2013-05-25 15:11:00,71.0,14.0,-100.00,SW,232,13.0,27.0,11,0.00,,,0.00,1182.000000,,2013-05-25 21:11:00,
2013-05-25 15:21:00,71.0,14.0,-100.00,SW,232,13.0,27.0,11,0.00,,,0.00,1182.000000,,2013-05-25 21:21:00,
2013-05-25 15:33:00,71.0,14.0,-100.00,SW,232,13.0,27.0,11,0.00,,,0.00,1182.000000,,2013-05-25 21:33:00,
2013-05-25 15:43:00,71.0,14.0,-100.00,SW,232,13.0,27.0,11,0.00,,,0.00,1182.000000,,2013-05-25 21:43:00,
2013-05-25 16:12:00,71.0,16.0,-100.00,SW,229,12.0,26.0,12,0.00,,,0.00,1049.000000,,2013-05-25 22:12:00,
2013-05-25 16:22:00,71.0,16.0,-100.00,SW,229,12.0,26.0,12,0.00,,,0.00,1049.000000,,2013-05-25 22:22:00,
2013-05-25 16:32:00,71.0,16.0,-100.00,SW,229,12.0,26.0,12,0.00,,,0.00,1049.000000,,2013-05-25 22:32:00,
2013-05-25 16:42:00,71.0,16.0,-100.00,SW,229,12.0,26.0,12,0.00,,,0.00,1049.000000,,2013-05-25 22:42:00,
2013-05-25 17:12:00,71.0,16.0,-100.00,SW,215,11.0,37.0,12,0.00,,,0.00,884.000000,,2013-05-25 23:12:00,
2013-05-25 17:21:00,71.0,16.0,-100.00,SW,215,11.0,37.0,12,0.00,,,0.00,884.000000,,2013-05-25 23:21:00,
2013-05-25 17:32:00,71.0,16.0,-100.00,SW,215,11.0,37.0,12,0.00,,,0.00,884.000000,,2013-05-25 23:32:00,
2013-05-25 17:42:00,71.0,16.0,-100.00,SW,215,11.0,37.0,12,0.00,,,0.00,884.000000,,2013-05-25 23:42:00,
2013-05-25 18:11:00,71.0,16.0,-100.00,SW,222,5.0,28.0,12,0.00,,,0.00,648.000000,,2013-05-26 00:11:00,
2013-05-25 18:21:00,71.0,16.0,-100.00,SW,222,5.0,28.0,12,0.00,,,0.00,648.000000,,2013-05-26 00:21:00,
2013-05-25 18:31:00,71.0,16.0,-100.00,SW,222,5.0,28.0,12,0.00,,,0.00,648.000000,,2013-05-26 00:31:00,
2013-05-25 18:42:00,71.0,16.0,-100.00,SW,222,5.0,28.0,12,0.00,,,0.00,648.000000,,2013-05-26 00:42:00,
2013-05-25 19:11:00,65.0,15.0,-100.00,SW,223,12.0,21.0,14,0.00,,,0.00,257.000000,,2013-05-26 01:11:00,
2013-05-25 19:21:00,65.0,15.0,-100.00,SW,223,12.0,21.0,14,0.00,,,0.00,257.000000,,2013-05-26 01:21:00,
2013-05-25 19:32:00,65.0,15.0,-100.00,SW,223,12.0,21.0,14,0.00,,,0.00,257.000000,,2013-05-26 01:32:00,
2013-05-25 19:41:00,65.0,15.0,-100.00,SW,223,12.0,21.0,14,0.00,,,0.00,257.000000,,2013-05-26 01:41:00,
2013-05-25 20:11:00,63.0,13.0,-100.00,WSW,239,9.0,17.0,14,0.00,,,0.00,88.000000,,2013-05-26 02:11:00,
2013-05-25 20:21:00,63.0,13.0,-100.00,WSW,239,9.0,17.0,14,0.00,,,0.00,88.000000,,2013-05-26 02:21:00,
2013-05-25 20:32:00,63.0,13.0,-100.00,WSW,239,9.0,17.0,14,0.00,,,0.00,88.000000,,2013-05-26 02:32:00,
2013-05-25 20:41:00,63.0,13.0,-100.00,WSW,239,9.0,17.0,14,0.00,,,0.00,88.000000,,2013-05-26 02:41:00,
2013-05-25 21:11:00,62.0,12.0,-100.00,SW,226,8.0,16.0,14,0.00,,,0.00,10.000000,,2013-05-26 03:11:00,
2013-05-25 21:21:00,62.0,12.0,-100.00,SW,226,8.0,16.0,14,0.00,,,0.00,10.000000,,2013-05-26 03:21:00,
2013-05-25 21:33:00,62.0,12.0,-100.00,SW,226,8.0,16.0,14,0.00,,,0.00,10.000000,,2013-05-26 03:33:00,
2013-05-25 21:42:00,62.0,12.0,-100.00,SW,226,8.0,16.0,14,0.00,,,0.00,10.000000,,2013-05-26 03:42:00,
2013-05-25 22:12:00,61.0,13.0,-100.00,SW,217,9.0,14.0,15,0.00,,,0.00,0.000000,,2013-05-26 04:12:00,
2013-05-25 22:23:00,61.0,13.0,-100.00,SW,217,9.0,14.0,15,0.00,,,0.00,0.000000,,2013-05-26 04:23:00,
2013-05-25 22:42:00,61.0,13.0,-100.00,SW,217,9.0,14.0,15,0.00,,,0.00,0.000000,,2013-05-26 04:42:00,
2013-05-25 23:12:00,60.0,15.0,-100.00,SSW,197,6.0,12.0,17,0.00,,,0.00,0.000000,,2013-05-26 05:12:00,
2013-05-25 23:22:00,60.0,15.0,-100.00,SSW,197,6.0,12.0,17,0.00,,,0.00,0.000000,,2013-05-26 05:22:00,
2013-05-25 23:42:00,60.0,15.0,-100.00,SSW,197,6.0,12.0,17,0.00,,,0.00,0.000000,,2013-05-26 05:42:00,